Home   Weather   Ciudad del Este   Past weeks
Flag for Paraguay

Past Weather in Ciudad del Este, Paraguay — Yesterday and Last 2 Weeks

Now
70 °F

Passing clouds.


Feels Like: 70 °F
Forecast: 79 / 67 °F
Wind: 9 mph from Southeast

Location: Foz Do Iguacu Aeroporto

Current Time: Jan 23, 2020 at 2:26:05 am

Latest Report: Jan 23, 2020 at 1:00 am


Visibility: N/A

Pressure: 29.74 "Hg

Humidity: 88%

Dew Point: 66 °F

Location of Ciudad del EsteLocation

Past Weather in Ciudad del Este — Graph

°F

Ciudad del Este Temperature Yesterday

Maximum temperature yesterday: 75 °F (at 3:00 pm)
Minimum temperature yesterday: 70 °F (at 9:00 pm)
Average temperature yesterday: 72 °F

High & Low Weather Summary for the Past Weeks

 TemperatureHumidityPressure
High91 °F (Jan 10, 5:00 pm)100% (Jan 9, 5:00 am)30.07 "Hg (Jan 9, 5:00 am)
Low70 °F (Jan 22, 9:00 pm)46% (Jan 17, 3:00 pm)29.65 "Hg (Jan 22, 4:00 am)
Average79 °F84%29.86 "Hg
* Reported Jan 8 1:00 am — Jan 23 1:00 am, Ciudad del Este. Weather by CustomWeather, © 2020

Note: Actual official high and low records may vary slightly from our data, if they occured in-between our weather recording intervals... More about our weather records

Ciudad del Este Weather History for the Previous 24 Hours

Scroll right to see more
 ConditionsComfort  
Time TempWeatherWind HumidityBarometerVisibility
1:00 am
Thu, Jan 23
70 °FPassing clouds.9 mph88%29.74 "HgN/A
12:00 am70 °FPassing clouds.13 mph88%29.74 "HgN/A
11:00 pm
Wed, Jan 22
70 °FPassing clouds.9 mph88%29.77 "HgN/A
10:00 pm70 °FPassing clouds.13 mph88%29.74 "HgN/A
9:00 pm70 °FPassing clouds.15 mph94%29.71 "HgN/A
8:00 pm72 °FLight rain. Overcast.15 mph88%29.68 "HgN/A
7:00 pm73 °FOvercast.16 mph83%29.65 "HgN/A
6:00 pm73 °FOvercast.15 mph83%29.65 "HgN/A
5:00 pm75 °FOvercast.18 mph83%29.65 "HgN/A
4:00 pm73 °FOvercast.14 mph89%29.68 "HgN/A
3:00 pm75 °FMore clouds than sun.14 mph89%29.68 "HgN/A
2:00 pm73 °FPartly sunny.14 mph94%29.71 "HgN/A
1:00 pm73 °FLight rain. Cloudy.12 mph94%29.71 "Hg4 mi
12:00 pm73 °FCloudy.9 mph94%29.74 "Hg4 mi
11:00 am73 °FRain. Cloudy.10 mph94%29.74 "Hg3 mi
10:00 am73 °FLight rain. Fog.5 mph94%29.74 "Hg3 mi
9:00 am73 °FLight rain. Fog.7 mph94%29.74 "Hg3 mi
8:00 am72 °FLight rain. Mostly cloudy.3 mph100%29.71 "Hg4 mi
7:00 am72 °FMore clouds than sun.2 mph100%29.71 "HgN/A
6:00 am72 °FOvercast.2 mph100%29.68 "HgN/A
5:00 am72 °FOvercast.5 mph100%29.65 "HgN/A
4:00 am72 °FPassing clouds.12 mph100%29.65 "HgN/A
3:00 am72 °FOvercast.9 mph100%29.68 "HgN/A
2:23 am72 °FOvercast.8 mph100%29.71 "HgN/A
2:00 am72 °FRain. Mostly cloudy.8 mph100%29.71 "Hg4 mi
Weather by CustomWeather, © 2020

See weather overview

Advertising